Flag for Germany Weather past 2 weeks in Wedel, Schleswig-Holstein, Germany

Now
61 °F

Broken clouds.


Feels Like: 61 °F
Forecast: 44 / 65 °F
Wind: 14 mph from West

Location: Hamburg-Finkenwerder

Current Time: Jun 3, 2015 at 4:03:54 PM

Latest Report: Jun 3, 2015 at 3:20 PM


Visibility: N/A

Pressure: 30.12 "Hg

Humidity: 68%

Dew point: 50 °F

Location of WedelLocation

Historic Weather in Wedel — Graph

°F

Wedel temperature yesterday

Maximum temperature yesterday: 66 °F (at 7:20 PM)
Minimum temperature yesterday: 54 °F (at 6:20 AM)
Average temperature yesterday: 61 °F

Past Weeks' High & Low Weather Summary

 TemperatureHumidityPressure
High66 °F (May 22, 2:20 PM)100% (May 19, 5:50 PM)30.30 "Hg (May 19, 5:50 PM)
Low43 °F (May 21, 6:20 AM)39% (Jun 1, 6:50 PM)29.65 "Hg (May 19, 2:20 PM)
Average56 °F70%29.97 "Hg
* Reported May 19 2:20 PM — Jun 3 2:50 PM, Wedel, Weather by CustomWeather, © 2015

Note: Actual official high and low records may vary slightly from our data, if they occured in-between our weather recording intervals... More about our weather records

Advertising

Wedel weather history for previous 24 hours

 ConditionsComfort  
Time TempWeatherWind HumidityBarometerVisibility
2:50 PM
Wed, Jun 3
61 °FSunny.16 mph63%30.12 "Hg10 mi
2:20 PM59 °FClear.18 mph63%30.09 "HgN/A
1:50 PM59 °FSprinkles. Broken clouds.17 mph72%30.09 "HgN/A
1:20 PM61 °FBroken clouds.21 mph63%30.07 "HgN/A
12:50 PM61 °FBroken clouds.16 mph68%30.04 "HgN/A
12:20 PM61 °FBroken clouds.14 mph68%30.04 "Hg10 mi
11:50 AM59 °FSprinkles. Partly sunny.18 mph68%30.04 "HgN/A
11:20 AM61 °FBroken clouds.18 mph59%30.01 "HgN/A
10:50 AM61 °FBroken clouds.15 mph63%29.98 "HgN/A
10:20 AM63 °FScattered clouds.20 mph56%29.98 "HgN/A
9:50 AM63 °FScattered clouds.23 mph64%29.95 "HgN/A
9:20 AM63 °FScattered clouds.20 mph59%29.95 "HgN/A
8:50 AM61 °FPassing clouds.17 mph63%29.92 "HgN/A
8:20 AM59 °FScattered clouds.20 mph68%29.92 "HgN/A
7:50 AM59 °FPassing clouds.18 mph72%29.92 "HgN/A
7:20 AM59 °FSunny.13 mph72%29.89 "Hg10 mi
6:50 AM59 °FSunny.13 mph72%29.89 "Hg10 mi
6:20 AM59 °FSunny.12 mph72%29.89 "Hg10 mi
7:50 PM
Tue, Jun 2
66 °FPartly sunny.17 mph68%29.77 "HgN/A
7:20 PM66 °FPartly sunny.21 mph68%29.77 "HgN/A
6:50 PM64 °FPartly sunny.17 mph73%29.77 "HgN/A
6:20 PM64 °FPartly sunny.17 mph68%29.77 "HgN/A
5:20 PM64 °FPartly sunny.22 mph68%29.77 "HgN/A
4:50 PM63 °FBroken clouds.21 mph73%29.77 "HgN/A
4:20 PM63 °FPartly sunny.21 mph68%29.74 "HgN/A
Weather by CustomWeather, © 2015

See weather overviewHow to use our weather pages